Weather History for Alma, MI

Change the Weather History Date:

Wednesday, November 20, 2013

  Actual Average Record
Temperature  
Mean Temperature 36 °F -  
Max Temperature 45 °F 45 °F 69 °F (1953)
Min Temperature 27 °F 28 °F 12 °F (1986)
Degree Days  
Heating Degree Days 29    
Moisture  
Dew Point 28 °F    
Average Humidity 76    
Maximum Humidity 93    
Minimum Humidity 44    
Precipitation  
Precipitation 0.00 in - - ()
Sea Level Pressure  
Sea Level Pressure 30.32 in    
Wind  
Wind Speed 5 mph (SE)    
Max Wind Speed 12 mph    
Max Gust Speed 16 mph    
Visibility 10 miles    
Events      
Averages and records for this station are not official NWS values.
T = Trace of Precipitation, MM = Missing Value Source: NWS Daily Summary

Daily Weather History Graph

Daily Weather History Graph

Search for Another Location

Airport:

Trip Planner

Search our weather history database for the weather conditions in past years. The results will help you decide how hot, cold, wet, or windy it might be!

Date:

Astronomy

Nov. 20, 2013 Rise Set
Actual Time 7:38 AM EST 5:09 PM EST
Civil Twilight 7:07 AM EST 5:41 PM EST
Nautical Twilight 6:32 AM EST 6:15 PM EST
Astronomical Twilight 5:58 AM EST 6:49 PM EST
Moon 7:52 PM EST (11/20) 10:03 AM EST (11/20)
Length of Visible Light 10h 33m
Length of Day
9h 31m
Waning Gibbous, 91% of the Moon is Illuminated
Nov 20
Waning Gibbous
Nov 25
Last Quarter
Dec 2
New
Dec 9
First Quarter
Dec 17
Full

Hourly Weather History & Observations

Time (EST) Temp. Windchill Dew Point Humidity Pressure Visibility Wind Dir Wind Speed Gust Speed Precip Events Conditions
12:14 AM 29.7 °F 24.7 °F 25.5 °F 85% 30.39 in 10.0 mi ESE 4.6 mph - N/A   Clear
12:34 AM 29.8 °F 24.9 °F 25.5 °F 84% 30.39 in 10.0 mi SE 4.6 mph - N/A   Clear
12:54 AM 29.8 °F 24.9 °F 25.7 °F 85% 30.38 in 10.0 mi SE 4.6 mph - N/A   Clear
1:15 AM 29.3 °F 24.3 °F 25.5 °F 86% 30.39 in 10.0 mi SE 4.6 mph - N/A   Clear
1:30 AM 28.9 °F 25.2 °F 25.3 °F 86% 30.39 in 10.0 mi ESE 3.5 mph - N/A   Clear
1:50 AM 28.8 °F - 25.3 °F 87% 30.39 in 10.0 mi Calm Calm - N/A   Clear
2:10 AM 28.4 °F 23.3 °F 25.3 °F 88% 30.39 in 10.0 mi SE 4.6 mph - N/A   Clear
2:30 AM 28.8 °F 22.6 °F 25.5 °F 88% 30.39 in 10.0 mi SE 5.8 mph - N/A   Clear
2:50 AM 28.8 °F 22.6 °F 25.7 °F 88% 30.39 in 10.0 mi SE 5.8 mph - N/A   Clear
3:10 AM 28.8 °F - 25.9 °F 89% 30.40 in 10.0 mi Calm Calm - N/A   Clear
3:30 AM 28.4 °F - 25.7 °F 90% 30.40 in 10.0 mi Calm Calm - N/A   Clear
3:50 AM 28.2 °F - 25.7 °F 90% 30.41 in 10.0 mi Calm Calm - N/A   Clear
4:10 AM 28.0 °F - 26.2 °F 93% 30.40 in 10.0 mi Calm Calm - N/A   Clear
4:31 AM 28.0 °F 21.7 °F 25.7 °F 91% 30.40 in 10.0 mi ESE 5.8 mph - N/A   Clear
4:51 AM 28.6 °F 22.4 °F 25.7 °F 89% 30.40 in 10.0 mi SE 5.8 mph - N/A   Clear
5:11 AM 28.4 °F 22.2 °F 25.7 °F 90% 30.39 in 10.0 mi SE 5.8 mph - N/A   Clear
5:31 AM 28.6 °F 21.5 °F 25.7 °F 89% 30.40 in 10.0 mi SE 6.9 mph - N/A   Clear
5:51 AM 28.0 °F - 25.7 °F 91% 30.40 in 10.0 mi Calm Calm - N/A   Clear
6:11 AM 27.7 °F 22.4 °F 25.7 °F 92% 30.40 in 10.0 mi SE 4.6 mph - N/A   Clear
6:31 AM 27.7 °F 22.4 °F 25.7 °F 92% 30.40 in 10.0 mi SE 4.6 mph - N/A   Clear
6:51 AM 28.4 °F 22.2 °F 25.9 °F 90% 30.39 in 10.0 mi SE 5.8 mph - N/A   Clear
7:11 AM 28.8 °F 23.7 °F 26.1 °F 90% 30.40 in 10.0 mi SE 4.6 mph - N/A   Clear
7:32 AM 28.8 °F 25.0 °F 26.2 °F 90% 30.40 in 10.0 mi SE 3.5 mph - N/A   Clear
7:52 AM 28.9 °F 22.8 °F 26.8 °F 92% 30.40 in 7.0 mi SE 5.8 mph - N/A   Clear
8:12 AM 29.3 °F 22.3 °F 27.3 °F 92% 30.40 in 7.0 mi SE 6.9 mph - N/A   Clear
8:32 AM 30.2 °F 24.3 °F 28.0 °F 92% 30.40 in 10.0 mi SE 5.8 mph - N/A   Clear
8:52 AM 30.9 °F 26.2 °F 28.4 °F 90% 30.40 in 10.0 mi SE 4.6 mph - N/A   Clear
9:12 AM 31.8 °F 27.3 °F 29.1 °F 90% 30.40 in 7.0 mi SE 4.6 mph - N/A   Clear
9:32 AM 32.0 °F 25.6 °F 29.8 °F 92% 30.40 in 7.0 mi ESE 6.9 mph - N/A   Clear
9:52 AM 32.2 °F 25.0 °F 29.8 °F 91% 30.39 in 10.0 mi ESE 8.1 mph - N/A   Clear
10:13 AM 33.8 °F 29.6 °F 30.9 °F 89% 30.39 in 10.0 mi SE 4.6 mph - N/A   Clear
10:33 AM 35.1 °F 29.3 °F 31.8 °F 88% 30.39 in 10.0 mi SE 6.9 mph - N/A   Clear
10:53 AM 35.2 °F 29.5 °F 32.0 °F 88% 30.38 in 10.0 mi ESE 6.9 mph - N/A   Clear
11:13 AM 36.7 °F 30.5 °F 32.0 °F 83% 30.36 in 10.0 mi SE 8.1 mph - N/A   Clear
11:33 AM 37.4 °F 31.4 °F 32.4 °F 82% 30.35 in 10.0 mi ESE 8.1 mph - N/A   Scattered Clouds
11:53 AM 38.3 °F 31.4 °F 33.1 °F 81% 30.34 in 10.0 mi SE 10.4 mph - N/A   Scattered Clouds
12:13 PM 38.5 °F 32.1 °F 32.9 °F 80% 30.34 in 10.0 mi SE 9.2 mph - N/A   Scattered Clouds
12:33 PM 40.8 °F 35.6 °F 33.8 °F 76% 30.33 in 10.0 mi SE 8.1 mph - N/A   Clear
12:53 PM 41.9 °F 36.3 °F 33.6 °F 72% 30.32 in 10.0 mi SE 9.2 mph - N/A   Clear
1:14 PM 41.9 °F 36.3 °F 32.4 °F 69% 30.31 in 10.0 mi SE 9.2 mph - N/A   Clear
1:34 PM 42.4 °F 38.1 °F 32.5 °F 68% 30.31 in 10.0 mi SE 6.9 mph - N/A   Clear
1:54 PM 44.1 °F 38.1 °F 30.2 °F 58% 30.30 in 10.0 mi SE 11.5 mph - N/A   Clear
2:14 PM 44.6 °F 38.8 °F 28.9 °F 54% 30.28 in 10.0 mi SE 11.5 mph - N/A   Clear
2:34 PM 44.6 °F 40.2 °F 28.4 °F 53% 30.27 in 10.0 mi ESE 8.1 mph 16.1 mph N/A   Clear
2:54 PM 45.7 °F 41.0 °F 27.1 °F 48% 30.26 in 10.0 mi ESE 9.2 mph - N/A   Clear
3:14 PM 45.9 °F 41.7 °F 26.8 °F 47% 30.26 in 10.0 mi SE 8.1 mph - N/A   Clear
3:34 PM 45.5 °F 39.9 °F 24.4 °F 44% 30.25 in 10.0 mi ESE 11.5 mph - N/A   Clear
3:54 PM 45.7 °F 41.5 °F 25.5 °F 45% 30.24 in 10.0 mi ESE 8.1 mph - N/A   Clear
4:10 PM 45.0 °F 40.1 °F 24.3 °F 44% 30.23 in 10.0 mi ESE 9.2 mph - N/A   Clear
4:30 PM 43.3 °F 39.9 °F 27.5 °F 54% 30.23 in 10.0 mi East 5.8 mph - N/A   Clear
4:50 PM 42.3 °F 39.4 °F 27.5 °F 56% 30.23 in 10.0 mi East 4.6 mph - N/A   Clear
5:10 PM 39.0 °F 34.8 °F 27.7 °F 64% 30.22 in 10.0 mi East 5.8 mph - N/A   Clear
5:30 PM 36.5 °F 31.8 °F 29.1 °F 75% 30.22 in 10.0 mi East 5.8 mph - N/A   Clear
5:50 PM 39.7 °F 34.3 °F 27.5 °F 62% 30.22 in 10.0 mi East 8.1 mph - N/A   Clear
6:10 PM 39.4 °F 33.8 °F 27.3 °F 62% 30.22 in 10.0 mi East 8.1 mph - N/A   Clear
6:30 PM 39.4 °F 34.5 °F 27.1 °F 62% 30.22 in 10.0 mi ESE 6.9 mph - N/A   Clear
6:50 PM 39.0 °F 34.0 °F 27.3 °F 63% 30.23 in 10.0 mi SE 6.9 mph - N/A   Clear
7:10 PM 38.3 °F 32.5 °F 26.2 °F 62% 30.22 in 10.0 mi SE 8.1 mph - N/A   Clear
7:31 PM 37.2 °F 33.6 °F 26.8 °F 66% 30.23 in 10.0 mi SSE 4.6 mph - N/A   Clear
7:51 PM 37.4 °F 32.8 °F 26.6 °F 65% 30.24 in 10.0 mi SSE 5.8 mph - N/A   Clear
8:11 PM 36.3 °F 32.5 °F 27.5 °F 70% 30.24 in 10.0 mi SE 4.6 mph - N/A   Clear
8:31 PM 36.7 °F 34.1 °F 26.8 °F 67% 30.23 in 10.0 mi SE 3.5 mph - N/A   Clear
8:51 PM 37.2 °F 32.6 °F 26.2 °F 65% 30.22 in 10.0 mi SE 5.8 mph - N/A   Clear
9:11 PM 36.0 °F 32.1 °F 27.9 °F 72% 30.22 in 10.0 mi SE 4.6 mph - N/A   Clear
9:31 PM 37.4 °F 33.8 °F 26.6 °F 65% 30.22 in 10.0 mi ESE 4.6 mph - N/A   Clear
9:51 PM 37.4 °F 33.8 °F 26.6 °F 65% 30.20 in 10.0 mi East 4.6 mph - N/A   Clear
10:11 PM 37.4 °F 34.9 °F 26.6 °F 65% 30.21 in 10.0 mi ESE 3.5 mph - N/A   Clear
10:32 PM 37.0 °F - 27.3 °F 68% 30.21 in 10.0 mi Calm Calm - N/A   Clear
10:52 PM 36.9 °F - 27.5 °F 69% 30.21 in 10.0 mi Calm Calm - N/A   Clear
11:12 PM 36.1 °F - 29.3 °F 76% 30.22 in 10.0 mi Calm Calm - N/A   Mostly Cloudy
11:32 PM 36.5 °F - 29.7 °F 76% 30.22 in 10.0 mi Calm Calm - N/A   Overcast
11:52 PM 36.3 °F 33.7 °F 31.1 °F 81% 30.23 in 10.0 mi SE 3.5 mph - N/A   Overcast